www.pogodaiklimat.ru

Погода и климат >> Архив погоды >> Буркина-Фасо >> Dedougou


ПОГОДА в Dedougou

  • Прогноз погоды в Dedougou
  • Монитор погоды в Dedougou
  • Климат города

АРХИВ ПОГОДЫ в Dedougou

Время (UTC), дата Ветер
(напр.,м/с)
 
Видим.   Явления Облачность Т
(С)
Тd
(С)
f
(%)
Тe
(С)
Тes
(С)
Комфортность P
(гПа)
Po
(гПа)
Тmin
(С)
Tmax
(С)
R
(мм)
R24
(мм)
S
(см)
09 13.01 СВ 2 15 км 6/0
[Ci sp]
+24.0 -1.2 19 +23 +28 комфорт 1014.5 980.7
12 13.01 СВ 3 15 км 6/0
[Ci sp]
+31.0 -3.6 10 +27 +38 жарко 1013.8 980.2
15 13.01 СВ 3 15 км 6/0
[Ci sp]
+32.6 -6.3 8 +29 +34 жарко 1010.4 976.9
18 13.01 СВ 2 15 км 6/0
[Ci sp]
+30.1 -1.3 13 +27 +27 жарко 1010.8 977.0 +33.7
21 13.01 СВ 1 10 км 6/0
[Ci sp]
+24.6 +0.9 21 +23 +23 комфорт 1012.8 978.9
00 14.01 СВ 2 10 км 6/0
[Ci sp]
+22.5 -2.5 19 +21 +21 комфорт 1012.8 979.3
03 14.01 В 2 10 км 6/0
[Ci sp]
+20.0 -4.0 19 +20 +20 1011.5 977.9
06 14.01 СВ 1 10 км 6/0
[Ci sp]
+18.0 -4.1 22 +19 +19 1012.0 978.1 +17.8
09 14.01 В 2 15 км 9/0
[Ci sp]
+24.6 -5.9 13 +22 +27 комфорт 1013.9 980.0
12 14.01 СВ 3 15 км 9/0
[Ci sp]
+31.4 -9.8 6 +27 +37 жарко 1012.8 979.2
15 14.01 СВ 2 15 км 9/0
[Ci sp]
+33.1 -2.8 10 +29 +36 жарко 1010.2 976.6
18 14.01 В 1 15 км 9/0
[Ci sp]
+30.5 -2.5 12 +27 +27 жарко 1010.6 976.8 +34.0
21 14.01 В 1 10 км 9/0
[Ci sp]
+24.0 -1.2 19 +23 +23 комфорт 1013.0 979.1
00 15.01 СВ 2 10 км 9/0
[Ci sp]
+23.0 -1.8 19 +22 +22 комфорт 1012.2 978.7
03 15.01 В 2 10 км 9/0
[Ci sp]
+20.5 -4.2 19 +21 +21 комфорт 1011.0 977.5
06 15.01 В 3 10 км 8/0
[Ci sp]
+18.5 -5.2 20 +19 +19 1011.7 977.8 +18.4
09 15.01 В 4 15 км 6/0
[Ci sp]
+24.0 -5.4 14 +22 +26 комфорт 1014.0 980.1
12 15.01 СВ 3 15 км 6/0
[Ci sp]
+31.5 -4.7 9 +28 +39 жарко 1012.5 978.9
15 15.01 СВ 2 15 км 9/0
[Ci sp]
+33.6 -1.3 11 +30 +37 жарко 1009.7 976.2
18 15.01 штиль 0 15 км 9/0
[Ci sp]
+31.5 +6.1 20 +30 +30 жарко 1009.9 976.2 +34.5
21 15.01 штиль 0 10 км 9/0
[Ci sp]
+23.7 +2.0 24 +23 +23 комфорт 1012.5 978.6
00 16.01 СВ 1 10 км 9/0
[Ci sp]
+22.5 -2.1 19 +21 +21 комфорт 1012.2 978.6
03 16.01 СВ 1 10 км 9/0
[Ci sp]
+20.5 -0.8 24 +22 +22 комфорт 1010.8 977.3
06 16.01 штиль 0 10 км 9/0
[Ci sp]
+16.6 +2.2 38 +17 +17 1011.4 977.5 +16.1
09 16.01 СВ 1 15 км 6/0
[Ci sp]
+22.5 +1.4 25 +22 +28 комфорт 1013.5 979.4
12 16.01 В 2 15 км 6/0
[Ci sp]
+32.0 -0.7 12 +29 +42 жарко 1012.0 978.5
15 16.01 В 1 15 км 6/0
[Ci sp]
+34.1 +3.8 15 +31 +40 жарко 1009.6 976.2
18 16.01 штиль 0 15 км 6/0
[Ci sp]
+32.4 +3.4 16 +32 +32 жарко 1009.9 976.2 +35.5
21 16.01 В 2 10 км 6/0
[Ci sp]
+27.5 +0.8 18 +25 +25 комфорт 1012.1 978.3
00 17.01 ЮВ 3 10 км 8/0
[Ci sp]
+25.3 -1.1 17 +23 +23 комфорт 1011.9 978.5
03 17.01 ЮВ 3 10 км 8/0
[Ci sp]
+23.0 -1.0 20 +22 +22 комфорт 1010.7 977.3
06 17.01 ЮВ 4 10 км 8/0
[Ci sp]
+22.5 -0.5 22 +22 +22 комфорт 1011.1 977.6 +22.4
09 17.01 В 4 6000 м пыль 9/0
[Ci sp]
+24.6 -0.2 19 +23 +27 комфорт 1012.5 978.9
12 17.01 В 3 8000 м пыль 9/0
[Ci sp]
+31.7 -2.5 11 +28 +39 жарко 1011.5 978.1
15 17.01 СВ 3 8000 м пыль 9/0
[Ci sp]
+34.0 +1.2 13 +31 +36 жарко 1008.9 975.7
18 17.01 СВ 1 8000 м пыль 9/0
[Ci sp]
+31.8 +9.0 24 +31 +31 жарко 1009.3 975.8 +35.0
21 17.01 СВ 3 8000 м пыль 9/0
[Ci sp]
+26.5 +4.1 24 +25 +25 комфорт 1011.7 978.0
00 18.01 СВ 3 8000 м пыль 9/0
[Ci sp]
+26.0 +1.3 20 +24 +24 комфорт 1012.3 978.9
03 18.01 СВ 2 8000 м пыль 9/0
[Ci sp]
+22.5 +2.4 27 +22 +22 комфорт 1011.0 977.6
06 18.01 В 2 8000 м пыль 9/0
[Ci sp]
+18.9 +1.9 32 +20 +20 1011.5 977.8 +18.6
09 18.01 В 3 8000 м пыль 9/0
[Ci sp]
+25.0 -3.7 15 +23 +27 комфорт 1013.0 979.2
12 18.01 СВ 3 8000 м пыль 9/0
[Ci sp]
+32.5 -5.4 8 +28 +39 жарко 1012.3 978.9
15 18.01 СЗ 2 8000 м пыль 9/0
[Ci sp]
+35.0 -2.0 9 +31 +38 жарко 1009.5 976.2
18 18.01 С 2 8000 м пыль 9/0
[Ci sp]
+32.0 +1.5 14 +29 +29 жарко 1010.1 976.5 +35.9
21 18.01 СВ 2 8000 м пыль 9/0
[Ci sp]
+26.7 +5.4 26 +26 +26 жарко 1012.1 978.4
00 19.01 СВ 2 10 км 9/0
[Ci sp]
+23.7 +2.0 24 +23 +23 комфорт 1012.1 978.7
03 19.01 С 1 10 км 9/0
[Ci sp]
+20.1 +3.0 32 +22 +22 комфорт 1011.5 978.0
06 19.01 СВ 1 10 км 9/0
[Ci sp]
+17.5 +1.5 34 +19 +19 1011.6 977.8 +17.2
09 19.01 СВ 2 15 км 9/0
[Ci sp]
+23.5 -3.8 16 +22 +27 комфорт 1013.4 979.6
12 19.01 ЮВ 4 10 км 9/0
[Ci sp]
+31.7 -4.6 9 +28 +36 жарко 1012.3 978.8
15 19.01 СВ 3 15 км 9/0
[Ci sp]
+34.5 -6.1 7 +30 +36 жарко 1009.5 976.1
18 19.01 СВ 2 15 км 9/0
[Ci sp]
+32.5 -4.2 9 +29 +29 жарко 1009.6 975.9 +35.5
21 19.01 СВ 3 10 км 9/0
[Ci sp]
+26.2 +2.4 21 +25 +25 комфорт 1011.7 977.9
00 20.01 В 3 10 км 9/0
[Ci sp]
+22.5 -0.5 22 +22 +22 комфорт 1011.3 977.8
03 20.01 В 2 10 км 9/0
[Ci sp]
+21.6 -0.8 22 +21 +21 комфорт 1010.1 976.7
06 20.01 С 2 10 км 9/0
[Ci sp]
+17.3 -1.0 29 +18 +18 1011.2 977.5 +17.0

 

Местоположение метеостанции Dedougou (Буркина-Фасо): широта 12.47 долгота -3.48 высота над уровнем моря 300 м.

В архиве по умолчанию представлена погода в Dedougou за последнюю неделю. Архивные данные за месяц целиком и за предыдущие месяцы, начиная с января 2011 года, Вы можете получить, выбрав интересующий диапазон дат из раскрывающегося списка и нажав кнопку "Ввод!".

Внимание! Время в таблицах - всемирное. Для получения местного времени необходимо прибавить поправку, которая в Dedougou равна 0 ч.

Смотрите также архив погоды в соседних городах и на ближайших метеорологических станциях:

Погода в Boromo (Буркина-Фасо) (100 км)
Погода в Ouahigouya (Буркина-Фасо) (168 км)
Погода в Bobo-Dioulasso (Буркина-Фасо) (171 км)
Погода в San (Мали) (175 км)
Погода в Ouagadougou (Буркина-Фасо) (213 км)
Погода в Koutiala (Мали) (216 км)
Погода в Mopti (Мали) (238 км)
Погода в Gaoua (Буркина-Фасо) (240 км)
Погода в Sikasso (Мали) (270 км)
Погода в Wa (Гана) (290 км)

Пояснения к столбцам:

Ветер - указаны скорость ветра в м/с - средняя за 10 мин, порывы в срок и между сроками (в фигурных скобках) и направление, откуда дует ветер: С - северный, СВ - северо-восточный, В - восточный, ЮВ - юго-восточный, Ю - южный, ЮЗ - юго-западный, З - западный, СЗ - северо-западный.
Видимость - горизонтальная дальность видимости в метрах или километрах. При видимости от 1 до 10 км при отсутствии осадков обычно наблюдается дымка, при ухудшении видимости до 1 км и менее - туман. В сухую погоду видимость может ухудшаться дымом, пылью или мглою.
Явления - указаны атмосферные явления, наблюдавшиеся в срок или в последний час перед сроком; фигурными скобками обозначены явления, наблюдавшиеся между сроками (за 1-3 часа до срока); квадратными скобками обозначены град или гололедные отложения с указанием их диаметра в мм.
Облачность - указаны через наклонную черту общая и нижняя облачность в баллах и высота нижней границы облаков в метрах; квадратными скобками обозначены формы облаков: Ci - перистые, Cs - перисто-слоистые, Cc - перисто-кучевые, Ac - высококучевые, As - высокослоистые, Sc - слоисто-кучевые, Ns - слоисто-дождевые, Cu - кучевые, Cb - кучево-дождевые. Подробнее классификацию облаков см. в Атласе облаков (PDF).
T - Температура воздуха - температура, измеренная на высоте 2 м над землей.
Td - Температура точки росы - температура, при понижении до которой содержащийся в воздухе водяной пар достигнет насыщения.
f - Относительная влажность воздуха - влажноcть воздуха, измеренная на высоте 2 м над землей.
Te - Эффективная температура - температура, которую ощущает одетый по сезону человек в тени. Характеристика душности погоды. При расчете учитывается влияние влажности воздуха и скорости ветра на теплоощущения человека.
Tes - Эффективная температура на солнце - температура, которую ощущает человек, с поправкой на солнечный нагрев. Характеристика знойности погоды. Зависит от высоты солнца над горизонтом, облачности и скорости ветра. Ночью, в пасмурную погоду, а также при ветре 12 м/с и более поправка равна нулю.
P - Атмосферное давление - приведенное к уровню моря атмосферное давление.
Po - Атмосферное давление - измеренное на уровне метеостанции атмосферное давление.
Tmin - Минимальная температура - минимум температуры воздуха на высоте 2 м над землей.
Tmax - Максимальная температура - максимум температуры воздуха на высоте 2 м над землей.
R - Количество осадков - Количество выпавших осадков за период времени, мм. При наведении курсора мыши на число - период времени, за который выпало указанное количество осадков.
R24 - Количество осадков - Количество выпавших осадков за 24 часа, мм.
S - Снежный покров - Высота снежного покрова, см. При наведении курсора мыши на число - состояние снежного покрова и степень покрытия местности в баллах.